This is the latest recevied weather packets stored in our database for station/object DO8TBO-15. If no packets are shown the sender has not sent any weather packets the latest 10 day(s).
| Time | Temp. | Humidity | Pressure | Rain* | Wind** | Luminosity | Snow |
|---|---|---|---|---|---|---|---|
| 1777498526 | 7.22° C | - | 1028.3 hPa | 0 mm | - | - | - |
| 1777497923 | 7.22° C | - | 1028.1 hPa | 0 mm | - | - | - |
| 1777497318 | 7.78° C | - | 1028 hPa | 0 mm | - | - | - |
| 1777496774 | 7.78° C | - | 1028 hPa | 0 mm | - | - | - |
| 1777496171 | 8.33° C | - | 1027.7 hPa | 0 mm | - | - | - |
| 1777495568 | 8.33° C | - | 1027.6 hPa | 0 mm | - | - | - |
| 1777494963 | 8.33° C | - | 1027.4 hPa | 0 mm | - | - | - |
| 1777494360 | 8.89° C | - | 1027.5 hPa | 0 mm | - | - | - |
| 1777493756 | 8.89° C | - | 1027.5 hPa | 0 mm | - | - | - |
| 1777493152 | 8.89° C | - | 1027.4 hPa | 0 mm | - | - | - |
| 1777492549 | 8.89° C | - | 1027.4 hPa | 0 mm | - | - | - |
| 1777491944 | 9.44° C | - | 1027.3 hPa | 0 mm | - | - | - |
| 1777491342 | 9.44° C | - | 1027 hPa | 0 mm | - | - | - |
| 1777490737 | 9.44° C | - | 1026.9 hPa | 0 mm | - | - | - |
| 1777489530 | 10° C | - | 1026.6 hPa | 0 mm | - | - | - |
| 1777488927 | 10° C | - | 1026.4 hPa | 0 mm | - | - | - |
| 1777488323 | 10.56° C | - | 1026.2 hPa | 0 mm | - | - | - |
| 1777487719 | 10.56° C | - | 1026.1 hPa | 0 mm | - | - | - |
| 1777487175 | 11.11° C | - | 1025.9 hPa | 0 mm | - | - | - |
| 1777486572 | 11.11° C | - | 1025.7 hPa | 0 mm | - | - | - |
| 1777485968 | 11.67° C | - | 1025.7 hPa | 0 mm | - | - | - |
| 1777485365 | 12.78° C | - | 1025.5 hPa | 0 mm | - | - | - |
| 1777484760 | 13.33° C | - | 1025.4 hPa | 0 mm | - | - | - |
| 1777484157 | 13.89° C | - | 1025.4 hPa | 0 mm | - | - | - |
| 1777483553 | 14.44° C | - | 1025.3 hPa | 0 mm | - | - | - |
* Rain latest hour (hover to see other rain measurements)
** Current wind speed in m/s (hover to see current wind gust speed)